Rimini, Italy

11:10 PM CEST on July 26, 2016 (GMT +0200)
Rimini Mil

Weather History for LIPR - October, 2013

Change the Weather History Date:

Sunday, October 27, 2013

  Actual Average Record
Temperature  
Mean Temperature 66 °F -  
Max Temperature 74 °F 56 °F 75 °F (2004)
Min Temperature 59 °F 43 °F 42 °F (1997)
Cooling Degree Days 2    
Growing Degree Days 16 (Base 50)    
Moisture  
Dew Point 62 °F    
Average Humidity 95    
Maximum Humidity 100    
Minimum Humidity 65    
Precipitation  
Precipitation 0.00 in 0.10 in - ()
Sea Level Pressure  
Sea Level Pressure 30.14 in    
Wind  
Wind Speed 2 mph ()    
Max Wind Speed 8 mph    
Max Gust Speed -    
Visibility 3.1 miles    
Events Fog    
Averages and records for this station are not official NWS values.
T = Trace of Precipitation, MM = Missing Value Source: Averaged Metar Reports

Daily Weather History Graph

Daily Weather History Graph

Search for Another Location

Airport or City:

Trip Planner

Search our weather history database for the weather conditions in past years. The results will help you decide how hot, cold, wet, or windy it might be!

Date:

Astronomy

Oct. 27, 2013 Rise Set
Actual Time 6:39 AM CET 5:06 PM CET
Civil Twilight 6:09 AM CET 5:36 PM CET
Nautical Twilight 5:35 AM CET 6:10 PM CET
Astronomical Twilight 5:02 AM CET 6:43 PM CET
Moon No Moon Rise 1:19 PM CET (10/27)
Length of Visible Light 11h 26m
Length of Day
10h 27m
Last Quarter, 45% of the Moon is Illuminated
Oct 27
Last Quarter
Nov 3
New
Nov 10
First Quarter
Nov 17
Full
Nov 25
Last Quarter

Hourly Weather History & Observations

Time (CET) Temp. Dew Point Humidity Pressure Visibility Wind Dir Wind Speed Gust Speed Precip Events Conditions
12:15 AM 62.6 °F 60.8 °F 94% 30.21 in 1.9 mi Calm Calm - N/A   Mostly Cloudy
12:45 AM 62.6 °F 60.8 °F 94% 30.21 in 1.9 mi Calm Calm - N/A   Mostly Cloudy
1:15 AM 60.8 °F 60.8 °F 100% 30.21 in 2.2 mi Calm Calm - N/A   Mostly Cloudy
1:45 AM 60.8 °F 60.8 °F 100% 30.21 in 1.9 mi Calm Calm - N/A   Mostly Cloudy
2:00 AM 61 °F 61 °F 98% 30.23 in 2 mi Calm Calm - -   Mist
2:15 AM 60.8 °F 60.8 °F 100% 30.21 in 1.7 mi Calm Calm - N/A   Mostly Cloudy
2:45 AM 60.8 °F 60.8 °F 100% 30.21 in 1.6 mi Calm Calm - N/A   Mostly Cloudy
2:15 AM 60.8 °F 60.8 °F 100% 30.21 in 1.6 mi Calm Calm - N/A   Mostly Cloudy
2:45 AM 60.8 °F 60.8 °F 100% 30.21 in 1.6 mi West 2.3 mph - N/A   Mostly Cloudy
3:15 AM 60.8 °F 60.8 °F 100% 30.21 in 1.6 mi West 1.2 mph - N/A   Mostly Cloudy
3:45 AM 60.8 °F 60.8 °F 100% 30.21 in 1.6 mi Calm Calm - N/A   Mostly Cloudy
4:00 AM 62 °F 61 °F 97% 30.24 in 2 mi Calm Calm - -   Mist
4:15 AM 60.8 °F 60.8 °F 100% 30.21 in 1.2 mi Calm Calm - N/A   Mostly Cloudy
4:45 AM 60.8 °F 60.8 °F 100% 30.21 in 1.1 mi Calm Calm - N/A   Mostly Cloudy
5:15 AM 60.8 °F 60.8 °F 100% 30.21 in 1.2 mi Calm Calm - N/A   Mostly Cloudy
5:45 AM 60.8 °F 60.8 °F 100% 30.18 in 1.1 mi Calm Calm - N/A   Mostly Cloudy
6:15 AM 60.8 °F 60.8 °F 100% 30.18 in 1.2 mi Calm Calm - N/A   Mostly Cloudy
6:45 AM 60.8 °F 60.8 °F 100% 30.18 in 0.6 mi Calm Calm - N/A Fog Fog
7:00 AM 60 °F 60 °F 100% 30.21 in 1 mi Calm Calm - - Fog Partial Fog
7:15 AM 60.8 °F 59.0 °F 94% 30.18 in 0.5 mi Calm Calm - N/A Fog Fog
7:45 AM 60.8 °F 59.0 °F 94% 30.18 in 0.5 mi Calm Calm - N/A Fog Fog
8:15 AM 59.0 °F 59.0 °F 100% 30.18 in 0.4 mi SSE 1.2 mph - N/A Fog Fog
8:45 AM 60.8 °F 59.0 °F 94% 30.18 in 0.6 mi South 2.3 mph - N/A Fog Fog
9:15 AM 60.8 °F 60.8 °F 100% 30.18 in 1.1 mi South 2.3 mph - N/A   Overcast
9:45 AM 60.8 °F 60.8 °F 100% 30.18 in 2.2 mi ESE 2.3 mph - N/A   Mostly Cloudy
10:00 AM 60 °F 60 °F 100% 30.19 in 2 mi ESE 2.3 mph - - Fog Light Fog
10:15 AM 60.8 °F 60.8 °F 100% 30.18 in 4.3 mi East 3.5 mph - N/A   Unknown
10:45 AM 62.6 °F 62.6 °F 100% 30.15 in 4.3 mi East 4.6 mph - N/A   Unknown
11:15 AM 64.4 °F 64.4 °F 100% 30.15 in 5.0 mi East 5.8 mph - N/A   Unknown
11:45 AM 64.4 °F 64.4 °F 100% 30.12 in 5.0 mi East 6.9 mph - N/A   Unknown
12:15 PM 64.4 °F 64.4 °F 100% 30.12 in - East 8.1 mph - N/A   Clear
12:45 PM 64.4 °F 64.4 °F 100% 30.09 in - East 6.9 mph - N/A   Clear
1:00 PM 65 °F 64 °F 94% 30.12 in 6 mi East 6.9 mph - -   Partly Cloudy
1:15 PM 64.4 °F 64.4 °F 100% 30.09 in - East 8.1 mph - N/A   Clear
1:45 PM 66.2 °F 64.4 °F 94% 30.06 in - SSW 3.5 mph - N/A   Clear
2:15 PM 68.0 °F 64.4 °F 88% 30.06 in - SSE 4.6 mph - N/A   Clear
2:45 PM 71.6 °F 64.4 °F 78% 30.06 in - SSW 3.5 mph - N/A   Clear
3:15 PM 75.2 °F 62.6 °F 65% 30.09 in 6.2 mi NW 4.6 mph - N/A   Scattered Clouds
3:45 PM 73.4 °F 66.2 °F 78% 30.09 in 6.2 mi West 1.2 mph - N/A   Scattered Clouds
4:00 PM 73 °F 65 °F 70% 30.11 in 9 mi West 1.2 mph - -   Scattered Clouds
4:15 PM 71.6 °F 66.2 °F 83% 30.09 in 6.2 mi SW 1.2 mph - N/A   Scattered Clouds
4:45 PM 71.6 °F 66.2 °F 83% 30.09 in 6.2 mi South 2.3 mph - N/A   Partly Cloudy
5:15 PM 69.8 °F 64.4 °F 83% 30.06 in 6.2 mi SSE 2.3 mph - N/A   Scattered Clouds
5:45 PM 68.0 °F 64.4 °F 88% 30.09 in 6.2 mi South 3.5 mph - N/A   Scattered Clouds
6:15 PM 66.2 °F 64.4 °F 94% 30.06 in 6.2 mi South 4.6 mph - N/A   Partly Cloudy
6:45 PM 66.2 °F 64.4 °F 94% 30.06 in - South 6.9 mph - N/A   Clear
7:00 PM 66 °F 64 °F 89% 30.09 in 6 mi South 6.9 mph - -  
7:15 PM 68.0 °F 64.4 °F 88% 30.06 in - South 3.5 mph - N/A   Clear
7:45 PM 66.2 °F 64.4 °F 94% 30.06 in - South 3.5 mph - N/A   Clear
8:15 PM 66.2 °F 66.2 °F 100% 30.09 in - South 4.6 mph - N/A   Clear
8:45 PM 64.4 °F 64.4 °F 100% 30.09 in - South 3.5 mph - N/A   Clear
9:15 PM 62.6 °F 62.6 °F 100% 30.09 in - South 5.8 mph - N/A   Clear
9:45 PM 64.4 °F 64.4 °F 100% 30.09 in - South 3.5 mph - N/A   Clear
10:00 PM 64 °F 64 °F 99% 30.10 in 6 mi South 3.5 mph - -  
10:15 PM 64.4 °F 62.6 °F 94% 30.09 in - South 3.5 mph - N/A   Clear
10:45 PM 64.4 °F 62.6 °F 94% 30.09 in - SSE 3.5 mph - N/A   Clear